| time (UTC) | temp F | wind direction | speed MPH | gust MPH | rain 1hr in | rain 24hr in | rain mn in | humidity % | barometer mb |
| 20260506073441 | 50 | 261 | 6.0 | 11.0 | 0.00 | 0.00 | 0.00 | 96 | 1020.6 |
| 20260506072413 | 49 | 270 | 8.0 | 15.0 | 0.00 | 0.00 | 0.00 | 97 | 1020.6 |
| 20260506071425 | 48 | 232 | 3.0 | 13.0 | 0.00 | 0.00 | 0.00 | 97 | 1020.6 |
| 20260506070417 | 48 | 307 | 4.0 | 9.0 | 0.00 | 0.00 | 0.00 | 97 | 1020.7 |
| 20260506062416 | 47 | 259 | 5.0 | 12.0 | 0.00 | 0.00 | 0.00 | 97 | 1021.0 |
| 20260506061409 | 47 | 253 | 4.0 | 16.0 | 0.00 | 0.00 | 0.00 | 97 | 1020.8 |
| 20260506060423 | 47 | 198 | 6.0 | 20.0 | 0.00 | 0.00 | 0.00 | 97 | 1020.6 |
| 20260506051416 | 45 | 240 | 4.0 | 14.0 | 0.00 | 0.00 | 0.00 | 96 | 1020.7 |
| 20260506050410 | 45 | 229 | 5.0 | 11.0 | 0.00 | 0.00 | 0.00 | 96 | 1021.0 |
| 20260506044415 | 45 | 177 | 7.0 | 18.0 | 0.00 | 0.00 | 0.00 | 94 | 1021.0 |
| 20260506043411 | 45 | 248 | 7.0 | 18.0 | 0.00 | 0.00 | 0.00 | 94 | 1020.9 |
| 20260506042424 | 45 | 165 | 7.0 | 13.0 | 0.00 | 0.00 | 0.00 | 93 | 1020.9 |
| 20260506041417 | 45 | 228 | 5.0 | 11.0 | 0.00 | 0.00 | 0.00 | 92 | 1020.8 |
| 20260506040412 | 45 | 215 | 4.0 | 10.0 | 0.00 | 0.00 | 0.00 | 91 | 1020.9 |
| 20260506035446 | 45 | 302 | 4.0 | 14.0 | 0.00 | 0.00 | 0.00 | 91 | 1020.8 |
| 20260506034417 | 45 | 284 | 4.0 | 16.0 | 0.00 | 0.00 | 0.00 | 90 | 1020.7 |
| 20260506033410 | 45 | 250 | 3.0 | 15.0 | 0.00 | 0.00 | 0.00 | 89 | 1020.5 |
| 20260506032424 | 45 | 212 | 5.0 | 14.0 | 0.00 | 0.00 | 0.00 | 89 | 1020.3 |
| 20260506031422 | 44 | 253 | 4.0 | 10.0 | 0.00 | 0.00 | 0.00 | 90 | 1020.2 |
| 20260506030415 | 44 | 207 | 5.0 | 10.0 | 0.00 | 0.00 | 0.00 | 89 | 1020.1 |
| 20260506025411 | 44 | 246 | 5.0 | 9.0 | 0.00 | 0.00 | 0.00 | 89 | 1020.2 |
| 20260506024410 | 44 | 223 | 2.0 | 11.0 | 0.00 | 0.00 | 0.00 | 88 | 1020.0 |
| 20260506023424 | 44 | 237 | 5.0 | 10.0 | 0.00 | 0.00 | 0.00 | 89 | 1020.0 |
| 20260506022417 | 44 | 196 | 5.0 | 14.0 | 0.00 | 0.00 | 0.00 | 88 | 1020.0 |
| 20260506021415 | 45 | 189 | 3.0 | 13.0 | 0.00 | 0.00 | 0.00 | 87 | 1020.0 |
| 20260506020427 | 45 | 167 | 4.0 | 14.0 | 0.00 | 0.00 | 0.00 | 86 | 1019.9 |
| 20260506015421 | 45 | 254 | 6.0 | 13.0 | 0.00 | 0.00 | 0.00 | 86 | 1019.7 |
| 20260506014435 | 45 | 266 | 6.0 | 13.0 | 0.00 | 0.00 | 0.00 | 86 | 1019.6 |
| 20260506013431 | 45 | 236 | 5.0 | 13.0 | 0.00 | 0.00 | 0.00 | 86 | 1019.4 |
| 20260506012425 | 45 | 244 | 8.0 | 17.0 | 0.00 | 0.00 | 0.00 | 86 | 1019.2 |
| 20260506011418 | 45 | 191 | 5.0 | 16.0 | 0.00 | 0.00 | 0.00 | 86 | 1019.2 |
| 20260506010411 | 45 | 222 | 7.0 | 15.0 | 0.00 | 0.00 | 0.00 | 86 | 1018.8 |
| 20260506005428 | 45 | 275 | 7.0 | 15.0 | 0.00 | 0.00 | 0.00 | 86 | 1018.7 |
| 20260506004421 | 45 | 273 | 5.0 | 17.0 | 0.00 | 0.00 | 0.00 | 86 | 1018.5 |
| 20260506003435 | 45 | 250 | 7.0 | 16.0 | 0.00 | 0.00 | 0.00 | 86 | 1018.3 |
| 20260506002418 | 44 | 198 | 7.0 | 17.0 | 0.00 | 0.00 | 0.00 | 87 | 1018.1 |
| 20260506001435 | 43 | 220 | 5.0 | 17.0 | 0.00 | 0.00 | 0.00 | 87 | 1017.9 |
| 20260506000428 | 43 | 233 | 8.0 | 15.0 | 0.00 | 0.00 | 0.00 | 87 | 1017.8 |
| 20260505235442 | 43 | 242 | 4.0 | 14.0 | 0.00 | 0.00 | 0.00 | 87 | 1017.7 |
| 20260505234417 | 44 | 229 | 4.0 | 11.0 | 0.00 | 0.00 | 0.00 | 85 | 1017.5 |
| 20260505233417 | 45 | 229 | 6.0 | 16.0 | 0.00 | 0.00 | 0.00 | 84 | 1017.3 |
| 20260505232411 | 45 | 300 | 7.0 | 17.0 | 0.00 | 0.00 | 0.00 | 83 | 1017.1 |
| 20260505231425 | 46 | 221 | 5.0 | 15.0 | 0.00 | 0.00 | 0.00 | 82 | 1017.0 |
| 20260505230442 | 47 | 206 | 7.0 | 12.0 | 0.00 | 0.00 | 0.00 | 81 | 1016.8 |
| 20260505225417 | 47 | 232 | 6.0 | 14.0 | 0.00 | 0.00 | 0.00 | 81 | 1016.7 |
| 20260505224428 | 47 | 225 | 6.0 | 15.0 | 0.00 | 0.00 | 0.00 | 80 | 1016.6 |
| 20260505223422 | 47 | 175 | 4.0 | 16.0 | 0.00 | 0.00 | 0.00 | 79 | 1016.2 |
| 20260505222440 | 48 | 257 | 6.0 | 16.0 | 0.00 | 0.00 | 0.00 | 78 | 1016.1 |
| 20260505221434 | 48 | 254 | 6.0 | 12.0 | 0.00 | 0.00 | 0.00 | 78 | 1016.0 |
| 20260505220426 | 49 | 211 | 4.0 | 15.0 | 0.00 | 0.00 | 0.00 | 76 | 1015.7 |
| 20260505215421 | 50 | 263 | 4.0 | 15.0 | 0.00 | 0.00 | 0.00 | 74 | 1015.6 |
| 20260505214422 | 51 | 266 | 6.0 | 13.0 | 0.00 | 0.00 | 0.00 | 73 | 1015.2 |
| 20260505213416 | 51 | 225 | 9.0 | 19.0 | 0.00 | 0.00 | 0.00 | 70 | 1015.1 |
| 20260505212409 | 52 | 266 | 5.0 | 17.0 | 0.00 | 0.00 | 0.00 | 68 | 1015.0 |
| 20260505211422 | 54 | 311 | 8.0 | 20.0 | 0.00 | 0.00 | 0.00 | 65 | 1014.7 |
| 20260505210421 | 55 | 252 | 7.0 | 16.0 | 0.00 | 0.00 | 0.00 | 61 | 1014.6 |
| 20260505205415 | 55 | 248 | 9.0 | 21.0 | 0.00 | 0.00 | 0.00 | 57 | 1014.6 |
| 20260505204447 | 55 | 244 | 9.0 | 19.0 | 0.00 | 0.00 | 0.00 | 54 | 1014.5 |
| 20260505203438 | 54 | 229 | 7.0 | 19.0 | 0.00 | 0.00 | 0.00 | 53 | 1014.5 |
| 20260505202412 | 54 | 277 | 7.0 | 16.0 | 0.00 | 0.00 | 0.00 | 52 | 1014.5 |
| 20260505201409 | 54 | 319 | 7.0 | 17.0 | 0.00 | 0.00 | 0.00 | 50 | 1014.4 |
| 20260505200424 | 54 | 274 | 6.0 | 15.0 | 0.00 | 0.00 | 0.00 | 47 | 1014.4 |
| 20260505195420 | 54 | 288 | 8.0 | 17.0 | 0.00 | 0.00 | 0.00 | 49 | 1014.2 |
| 20260505194413 | 53 | 281 | 8.0 | 17.0 | 0.00 | 0.00 | 0.00 | 51 | 1014.1 |
| 20260505193447 | 54 | 323 | 8.0 | 21.0 | 0.00 | 0.00 | 0.00 | 50 | 1013.9 |
| 20260505192420 | 54 | 43 | 9.0 | 21.0 | 0.00 | 0.00 | 0.00 | 50 | 1013.8 |
| 20260505191417 | 54 | 254 | 8.0 | 21.0 | 0.00 | 0.00 | 0.00 | 50 | 1013.7 |
| 20260505190410 | 54 | 253 | 9.0 | 16.0 | 0.00 | 0.00 | 0.00 | 51 | 1013.6 |
| 20260505185444 | 54 | 235 | 10.0 | 19.0 | 0.00 | 0.00 | 0.00 | 51 | 1013.4 |
| 20260505184419 | 54 | 338 | 7.0 | 18.0 | 0.00 | 0.00 | 0.00 | 52 | 1013.4 |
| 20260505183436 | 54 | 304 | 9.0 | 20.0 | 0.00 | 0.00 | 0.00 | 52 | 1013.6 |
| 20260505182429 | 54 | 287 | 8.0 | 19.0 | 0.00 | 0.00 | 0.00 | 52 | 1013.3 |
| 20260505181421 | 55 | 245 | 7.0 | 20.0 | 0.00 | 0.00 | 0.00 | 52 | 1013.4 |
| 20260505180416 | 54 | 301 | 6.0 | 19.0 | 0.00 | 0.00 | 0.00 | 53 | 1013.5 |
| 20260505175433 | 55 | 277 | 8.0 | 19.0 | 0.00 | 0.00 | 0.00 | 51 | 1013.4 |
| 20260505174426 | 56 | 170 | 8.0 | 22.0 | 0.00 | 0.00 | 0.00 | 50 | 1013.3 |
| 20260505173419 | 55 | 272 | 6.0 | 18.0 | 0.00 | 0.00 | 0.00 | 51 | 1013.3 |
| 20260505172413 | 56 | 306 | 7.0 | 18.0 | 0.00 | 0.00 | 0.00 | 48 | 1013.2 |
| 20260505171409 | 55 | 223 | 9.0 | 20.0 | 0.00 | 0.00 | 0.00 | 48 | 1012.9 |
| 20260505170444 | 55 | 256 | 8.0 | 18.0 | 0.00 | 0.00 | 0.00 | 49 | 1013.0 |
| 20260505165416 | 56 | 213 | 8.0 | 19.0 | 0.00 | 0.00 | 0.00 | 49 | 1012.8 |
| 20260505164414 | 55 | 257 | 7.0 | 16.0 | 0.00 | 0.00 | 0.00 | 49 | 1012.6 |
| 20260505163408 | 55 | 252 | 7.0 | 15.0 | 0.00 | 0.00 | 0.00 | 46 | 1012.7 |
| 20260505162420 | 55 | 198 | 7.0 | 16.0 | 0.00 | 0.00 | 0.00 | 47 | 1012.6 |
| 20260505161414 | 54 | 309 | 10.0 | 20.0 | 0.00 | 0.00 | 0.00 | 48 | 1012.4 |
| 20260505160411 | 55 | 311 | 6.0 | 15.0 | 0.00 | 0.00 | 0.00 | 48 | 1012.4 |
| 20260505152429 | 54 | 248 | 8.0 | 14.0 | 0.00 | 0.00 | 0.00 | 53 | 1011.9 |
| 20260505151440 | 53 | 252 | 6.0 | 15.0 | 0.00 | 0.00 | 0.00 | 56 | 1011.8 |
| 20260505150412 | 53 | 252 | 8.0 | 19.0 | 0.00 | 0.00 | 0.00 | 57 | 1011.7 |
| 20260505140421 | 52 | 282 | 9.0 | 16.0 | 0.00 | 0.00 | 0.00 | 65 | 1011.2 |
| 20260505124415 | 50 | 296 | 7.0 | 16.0 | 0.00 | 0.00 | 0.00 | 77 | 1010.4 |
| 20260505123447 | 50 | 214 | 8.0 | 19.0 | 0.00 | 0.00 | 0.00 | 78 | 1010.1 |
| 20260505122419 | 48 | 102 | 7.0 | 20.0 | 0.00 | 0.00 | 0.00 | 80 | 1010.0 |
| 20260505121414 | 48 | 211 | 8.0 | 15.0 | 0.00 | 0.00 | 0.00 | 81 | 1009.9 |
| 20260505120412 | 47 | 285 | 7.0 | 15.0 | 0.00 | 0.00 | 0.00 | 82 | 1010.0 |
| 20260505115421 | 47 | 238 | 8.0 | 16.0 | 0.00 | 0.00 | 0.00 | 82 | 1009.9 |
| 20260505114414 | 46 | 200 | 9.0 | 15.0 | 0.00 | 0.00 | 0.00 | 83 | 1009.8 |
| 20260505113410 | 46 | 252 | 7.0 | 19.0 | 0.00 | 0.00 | 0.00 | 83 | 1009.6 |
| 20260505112424 | 45 | 238 | 9.0 | 17.0 | 0.00 | 0.00 | 0.00 | 84 | 1009.2 |
| 20260505111418 | 45 | 236 | 5.0 | 17.0 | 0.00 | 0.00 | 0.00 | 85 | 1009.1 |
| 20260505110432 | 44 | 230 | 9.0 | 15.0 | 0.00 | 0.00 | 0.00 | 85 | 1009.1 |
| 20260505101427 | 43 | 200 | 8.0 | 16.0 | 0.00 | 0.00 | 0.00 | 87 | 1008.6 |
| 20260505100441 | 42 | 223 | 7.0 | 15.0 | 0.00 | 0.00 | 0.00 | 87 | 1008.4 |
| 20260505095414 | 42 | 276 | 8.0 | 19.0 | 0.00 | 0.00 | 0.00 | 87 | 1008.4 |
| 20260505094448 | 42 | 238 | 7.0 | 15.0 | 0.00 | 0.00 | 0.00 | 86 | 1008.4 |
| 20260505093423 | 43 | 327 | 7.0 | 12.0 | 0.00 | 0.00 | 0.00 | 85 | 1008.0 |
| 20260505092416 | 42 | 263 | 5.0 | 17.0 | 0.00 | 0.00 | 0.00 | 86 | 1007.6 |
| 20260505091428 | 41 | 226 | 5.0 | 14.0 | 0.00 | 0.00 | 0.00 | 87 | 1007.4 |
| 20260505090424 | 41 | 209 | 6.0 | 19.0 | 0.00 | 0.00 | 0.00 | 88 | 1007.4 |
| 20260505085437 | 40 | 88 | 6.0 | 12.0 | 0.00 | 0.00 | 0.00 | 89 | 1007.2 |
| 20260505084409 | 40 | 266 | 8.0 | 16.0 | 0.00 | 0.00 | 0.00 | 89 | 1007.6 |
| 20260505083421 | 40 | 199 | 5.0 | 15.0 | 0.00 | 0.00 | 0.00 | 90 | 1007.4 |
| 20260505082420 | 39 | 175 | 6.0 | 13.0 | 0.00 | 0.00 | 0.00 | 90 | 1007.5 |
| 20260505081431 | 39 | 242 | 6.0 | 18.0 | 0.00 | 0.00 | 0.00 | 89 | 1007.3 |
| 20260505080423 | 39 | 219 | 5.0 | 14.0 | 0.00 | 0.00 | 0.00 | 89 | 1006.8 |
| 20260505075416 | 39 | 221 | 5.0 | 15.0 | 0.00 | 0.00 | 0.00 | 89 | 1006.7 |
| 20260505074434 | 39 | 275 | 7.0 | 17.0 | 0.00 | 0.00 | 0.00 | 88 | 1007.1 |